APK7610 TBPB-TAPA

Flight info

Callsign APK7610
Flight time 0h 50m
Altitude 34000
Route BGI UA632 ANU
Aircraft B772/H-SDE2E3FGHIJ5LORVWXY/LB1D1

Departure

Time 2026-04-15 21:50
Airport Grantley Adams International Airport (TBPB)

Arrival

Time 2026-04-15 22:41
Airport V. C. Bird International Airport (TAPA)
Time Latitude Longitude Altitude Speed Heading
2026-04-15 21:29 13.07893 -59.48688 180 ft 0 kts 345°
2026-04-15 21:41 13.07886 -59.48686 180 ft 4 kts 345°
2026-04-15 21:41 13.07860 -59.48679 180 ft 4 kts 346°
2026-04-15 21:42 13.07833 -59.48673 180 ft 3 kts 346°
2026-04-15 21:42 13.07812 -59.48665 180 ft 4 kts 314°
2026-04-15 21:42 13.07805 -59.48644 180 ft 4 kts 257°
2026-04-15 21:42 13.07810 -59.48624 180 ft 1 kts 256°
2026-04-15 21:43 13.07811 -59.48620 180 ft 0 kts 256°
2026-04-15 21:45 13.07811 -59.48623 180 ft 3 kts 256°
2026-04-15 21:45 13.07795 -59.48683 180 ft 10 kts 255°
2026-04-15 21:45 13.07767 -59.48751 180 ft 10 kts 227°
2026-04-15 21:45 13.07730 -59.48826 180 ft 18 kts 257°
2026-04-15 21:46 13.07700 -59.48953 180 ft 18 kts 255°
2026-04-15 21:46 13.07669 -59.49078 180 ft 18 kts 256°
2026-04-15 21:46 13.07637 -59.49205 180 ft 18 kts 255°
2026-04-15 21:46 13.07607 -59.49331 180 ft 18 kts 257°
2026-04-15 21:47 13.07575 -59.49458 180 ft 18 kts 256°
2026-04-15 21:47 13.07541 -59.49601 180 ft 24 kts 255°
2026-04-15 21:47 13.07499 -59.49768 180 ft 24 kts 256°
2026-04-15 21:47 13.07458 -59.49934 180 ft 24 kts 256°
2026-04-15 21:48 13.07418 -59.50100 180 ft 24 kts 255°
2026-04-15 21:48 13.07378 -59.50267 180 ft 24 kts 255°
2026-04-15 21:48 13.07338 -59.50434 180 ft 24 kts 256°
2026-04-15 21:48 13.07296 -59.50599 180 ft 24 kts 256°
2026-04-15 21:49 13.07253 -59.50718 179 ft 17 kts 221°
2026-04-15 21:49 13.07139 -59.50709 179 ft 17 kts 159°
2026-04-15 21:49 13.07129 -59.50592 180 ft 30 kts 73°
2026-04-15 21:49 13.07239 -59.50148 182 ft 106 kts 76°
2026-04-15 21:50 13.07478 -59.49210 434 ft 153 kts 81°
2026-04-15 21:50 13.07700 -59.48208 1404 ft 139 kts 78°
2026-04-15 21:50 13.07955 -59.47395 2154 ft 148 kts 77°
2026-04-15 21:50 13.08524 -59.46455 2713 ft 176 kts 49°
2026-04-15 21:51 13.09790 -59.45848 3013 ft 226 kts 19°
2026-04-15 21:51 13.11442 -59.45624 3412 ft 255 kts
2026-04-15 21:51 13.13246 -59.46152 4027 ft 282 kts 336°
2026-04-15 21:51 13.14969 -59.47151 5108 ft 287 kts 333°
2026-04-15 21:52 13.16706 -59.48175 6234 ft 288 kts 332°
2026-04-15 21:52 13.18460 -59.49213 7213 ft 295 kts 332°
2026-04-15 21:52 13.20227 -59.50262 8319 ft 295 kts 333°
2026-04-15 21:52 13.22013 -59.51326 9380 ft 296 kts 331°
2026-04-15 21:53 13.23794 -59.52390 10438 ft 298 kts 330°
2026-04-15 21:53 13.25652 -59.53500 10884 ft 324 kts 330°
2026-04-15 21:53 13.27670 -59.54709 11419 ft 344 kts 329°
2026-04-15 21:53 13.29748 -59.55956 12376 ft 352 kts 328°
2026-04-15 21:54 13.31893 -59.57243 13301 ft 359 kts 328°
2026-04-15 21:54 13.33886 -59.58437 14290 ft 361 kts 328°
2026-04-15 21:54 13.36023 -59.59713 15486 ft 359 kts 327°
2026-04-15 21:54 13.38180 -59.60998 16666 ft 358 kts 326°
2026-04-15 21:55 13.40340 -59.62286 17745 ft 361 kts 326°
2026-04-15 21:55 13.42526 -59.63597 18685 ft 365 kts 325°
2026-04-15 21:55 13.44734 -59.64932 19518 ft 371 kts 325°
2026-04-15 21:55 13.46982 -59.66290 20385 ft 377 kts 325°
2026-04-15 21:56 13.49259 -59.67661 21282 ft 381 kts 325°
2026-04-15 21:56 13.51569 -59.69048 22186 ft 385 kts 325°
2026-04-15 21:56 13.53900 -59.70444 23053 ft 390 kts 326°
2026-04-15 21:56 13.56262 -59.71857 23824 ft 396 kts 325°
2026-04-15 21:57 13.58624 -59.73270 24526 ft 400 kts 325°
2026-04-15 21:57 13.61069 -59.74731 25331 ft 402 kts 325°
2026-04-15 21:57 13.63492 -59.76178 26146 ft 404 kts 325°
2026-04-15 21:57 13.65903 -59.77620 26823 ft 409 kts 325°
2026-04-15 21:58 13.68391 -59.79109 27452 ft 416 kts 324°
2026-04-15 21:58 13.70909 -59.80616 28098 ft 421 kts 324°
2026-04-15 21:58 13.73455 -59.82140 28771 ft 425 kts 324°
2026-04-15 21:58 13.76030 -59.83682 29426 ft 430 kts 324°
2026-04-15 21:59 13.78631 -59.85237 30017 ft 435 kts 324°
2026-04-15 21:59 13.81270 -59.86805 30550 ft 438 kts 324°
2026-04-15 21:59 13.83907 -59.88371 31116 ft 439 kts 324°
2026-04-15 21:59 13.86484 -59.89904 31733 ft 438 kts 324°
2026-04-15 22:00 13.89050 -59.91433 32425 ft 436 kts 324°
2026-04-15 22:00 13.91674 -59.93000 33124 ft 434 kts 324°
2026-04-15 22:00 13.94283 -59.94561 33784 ft 434 kts 323°
2026-04-15 22:00 13.96900 -59.96132 33953 ft 438 kts 323°
2026-04-15 22:01 13.99534 -59.97714 33950 ft 436 kts 323°
2026-04-15 22:01 14.04735 -60.00836 33953 ft 432 kts 323°
2026-04-15 22:02 14.09931 -60.03963 33956 ft 433 kts 323°
2026-04-15 22:02 14.15114 -60.07083 33961 ft 434 kts 323°
2026-04-15 22:03 14.20336 -60.10227 33958 ft 435 kts 323°
2026-04-15 22:03 14.25560 -60.13372 33952 ft 434 kts 323°
2026-04-15 22:04 14.30773 -60.16513 33965 ft 434 kts 323°
2026-04-15 22:04 14.35976 -60.19654 33961 ft 433 kts 323°
2026-04-15 22:05 14.41168 -60.22792 33965 ft 432 kts 323°
2026-04-15 22:05 14.46320 -60.25905 33961 ft 432 kts 323°
2026-04-15 22:06 14.51513 -60.29045 33958 ft 432 kts 323°
2026-04-15 22:06 14.56701 -60.32186 33962 ft 432 kts 323°
2026-04-15 22:07 14.61887 -60.35332 33981 ft 432 kts 323°
2026-04-15 22:07 14.67062 -60.38479 33966 ft 431 kts 322°
2026-04-15 22:08 14.72042 -60.41710 33962 ft 429 kts 321°
2026-04-15 22:08 14.77028 -60.45020 33961 ft 428 kts 321°
2026-04-15 22:09 14.82045 -60.48350 33964 ft 428 kts 321°
2026-04-15 22:09 14.87071 -60.51675 33963 ft 428 kts 321°
2026-04-15 22:10 14.92094 -60.54991 33969 ft 429 kts 321°
2026-04-15 22:10 14.97092 -60.58292 33982 ft 429 kts 321°
2026-04-15 22:11 15.02127 -60.61619 33968 ft 429 kts 321°
2026-04-15 22:11 15.07165 -60.64951 33969 ft 429 kts 321°
2026-04-15 22:12 15.12197 -60.68279 33974 ft 429 kts 321°
2026-04-15 22:12 15.17125 -60.71542 33978 ft 429 kts 321°
2026-04-15 22:13 15.22152 -60.74871 33980 ft 429 kts 321°
2026-04-15 22:13 15.27185 -60.78206 33982 ft 429 kts 321°
2026-04-15 22:14 15.32215 -60.81542 33986 ft 429 kts 321°
2026-04-15 22:14 15.37238 -60.84875 33978 ft 428 kts 321°
2026-04-15 22:15 15.42261 -60.88200 33971 ft 427 kts 321°
2026-04-15 22:15 15.47196 -60.91469 33873 ft 418 kts 321°
2026-04-15 22:15 15.49635 -60.93086 33431 ft 415 kts 321°
2026-04-15 22:16 15.52051 -60.94690 32988 ft 410 kts 321°
2026-04-15 22:16 15.54448 -60.96284 32546 ft 407 kts 321°
2026-04-15 22:16 15.56825 -60.97866 32093 ft 404 kts 321°
2026-04-15 22:16 15.59185 -60.99437 31657 ft 402 kts 321°
2026-04-15 22:17 15.61532 -61.01001 31217 ft 399 kts 322°
2026-04-15 22:17 15.63861 -61.02554 30798 ft 396 kts 321°
2026-04-15 22:17 15.66175 -61.04102 30357 ft 395 kts 322°
2026-04-15 22:17 15.68478 -61.05644 29882 ft 394 kts 322°
2026-04-15 22:18 15.70777 -61.07180 29388 ft 392 kts 322°
2026-04-15 22:18 15.73029 -61.08683 28893 ft 390 kts 322°
2026-04-15 22:18 15.75342 -61.10223 28406 ft 388 kts 323°
2026-04-15 22:18 15.77615 -61.11733 27956 ft 386 kts 323°
2026-04-15 22:19 15.79869 -61.13232 27492 ft 385 kts 323°
2026-04-15 22:19 15.82086 -61.14709 27047 ft 383 kts 323°
2026-04-15 22:19 15.84293 -61.16180 26601 ft 382 kts 323°
2026-04-15 22:19 15.86447 -61.17618 26173 ft 381 kts 323°
2026-04-15 22:20 15.88540 -61.19018 25748 ft 381 kts 323°
2026-04-15 22:20 15.90644 -61.20425 25339 ft 380 kts 323°
2026-04-15 22:20 15.92962 -61.21976 24864 ft 380 kts 324°
2026-04-15 22:20 15.95186 -61.23464 24412 ft 381 kts 324°
2026-04-15 22:21 15.97412 -61.24953 23972 ft 381 kts 324°
2026-04-15 22:21 15.99652 -61.26451 23507 ft 382 kts 324°
2026-04-15 22:21 16.01650 -61.27787 23042 ft 382 kts 324°
2026-04-15 22:21 16.03879 -61.29278 22579 ft 380 kts 324°
2026-04-15 22:22 16.06100 -61.30765 22116 ft 379 kts 324°
2026-04-15 22:22 16.08314 -61.32246 21671 ft 378 kts 324°
2026-04-15 22:22 16.10524 -61.33726 21233 ft 376 kts 324°
2026-04-15 22:22 16.12693 -61.35178 20785 ft 376 kts 324°
2026-04-15 22:23 16.14887 -61.36648 20338 ft 375 kts 324°
2026-04-15 22:23 16.17084 -61.38121 19905 ft 375 kts 324°
2026-04-15 22:23 16.19275 -61.39590 19430 ft 375 kts 324°
2026-04-15 22:23 16.21465 -61.41058 18975 ft 375 kts 324°
2026-04-15 22:24 16.23662 -61.42532 18527 ft 375 kts 324°
2026-04-15 22:24 16.25856 -61.44004 18046 ft 376 kts 324°
2026-04-15 22:24 16.28051 -61.45478 17559 ft 375 kts 324°
2026-04-15 22:24 16.30240 -61.46948 17090 ft 374 kts 324°
2026-04-15 22:25 16.32422 -61.48413 16654 ft 372 kts 324°
2026-04-15 22:25 16.34601 -61.49876 16210 ft 371 kts 324°
2026-04-15 22:25 16.36759 -61.51324 15766 ft 370 kts 325°
2026-04-15 22:25 16.38197 -61.52287 15475 ft 369 kts 325°
2026-04-15 22:26 16.40982 -61.54154 14901 ft 368 kts 325°
2026-04-15 22:26 16.43128 -61.55596 14468 ft 366 kts 325°
2026-04-15 22:26 16.45271 -61.57036 14020 ft 366 kts 325°
2026-04-15 22:26 16.47405 -61.58472 13549 ft 366 kts 325°
2026-04-15 22:27 16.49539 -61.59908 13056 ft 364 kts 325°
2026-04-15 22:27 16.51664 -61.61339 12616 ft 362 kts 326°
2026-04-15 22:27 16.53090 -61.62299 12317 ft 361 kts 325°
2026-04-15 22:27 16.55879 -61.64176 11657 ft 359 kts 325°
2026-04-15 22:28 16.57301 -61.65134 11213 ft 360 kts 326°
2026-04-15 22:28 16.59384 -61.66539 10561 ft 362 kts 326°
2026-04-15 22:28 16.61503 -61.67969 9918 ft 363 kts 327°
2026-04-15 22:28 16.63630 -61.69404 9213 ft 364 kts 327°
2026-04-15 22:29 16.65758 -61.70840 8525 ft 365 kts 328°
2026-04-15 22:29 16.67893 -61.72280 7837 ft 365 kts 328°
2026-04-15 22:29 16.70028 -61.73721 7172 ft 365 kts 328°
2026-04-15 22:29 16.72154 -61.75156 6519 ft 364 kts 328°
2026-04-15 22:30 16.74273 -61.76587 5830 ft 357 kts 329°
2026-04-15 22:30 16.76310 -61.77964 5150 ft 340 kts 329°
2026-04-15 22:30 16.78257 -61.79279 4457 ft 327 kts 329°
2026-04-15 22:30 16.80125 -61.80541 3970 ft 310 kts 329°
2026-04-15 22:31 16.81875 -61.81725 3707 ft 290 kts 330°
2026-04-15 22:31 16.83521 -61.82836 3483 ft 274 kts 330°
2026-04-15 22:31 16.84977 -61.83816 3358 ft 268 kts 330°
2026-04-15 22:31 16.86540 -61.84869 3202 ft 269 kts 330°
2026-04-15 22:32 16.88108 -61.85928 3067 ft 267 kts 330°
2026-04-15 22:32 16.89680 -61.86992 2925 ft 271 kts 330°
2026-04-15 22:32 16.91279 -61.88077 2782 ft 273 kts 330°
2026-04-15 22:32 16.92854 -61.89149 2687 ft 266 kts 330°
2026-04-15 22:33 16.94355 -61.90174 2666 ft 254 kts 330°
2026-04-15 22:33 16.95844 -61.91185 2590 ft 258 kts 330°
2026-04-15 22:33 16.97350 -61.92208 2539 ft 258 kts 331°
2026-04-15 22:33 16.98847 -61.93224 2503 ft 252 kts 330°
2026-04-15 22:34 17.00265 -61.94186 2472 ft 232 kts 330°
2026-04-15 22:34 17.01555 -61.95058 2479 ft 218 kts 331°
2026-04-15 22:34 17.02821 -61.95909 2477 ft 215 kts 331°
2026-04-15 22:34 17.04056 -61.96811 2436 ft 219 kts 336°
2026-04-15 22:35 17.05516 -61.97137 2446 ft 212 kts
2026-04-15 22:35 17.06861 -61.96653 2478 ft 204 kts 40°
2026-04-15 22:35 17.07695 -61.95533 2500 ft 194 kts 63°
2026-04-15 22:35 17.08155 -61.94235 2488 ft 189 kts 89°
2026-04-15 22:36 17.08045 -61.92982 2498 ft 163 kts 97°
2026-04-15 22:36 17.07989 -61.91829 2278 ft 153 kts 94°
2026-04-15 22:36 17.07979 -61.90796 2048 ft 132 kts 95°
2026-04-15 22:36 17.07978 -61.89893 2008 ft 119 kts 94°
2026-04-15 22:37 17.07909 -61.89032 1993 ft 120 kts 98°
2026-04-15 22:37 17.08199 -61.88200 1691 ft 138 kts 50°
2026-04-15 22:37 17.08887 -61.87558 1481 ft 128 kts 51°
2026-04-15 22:37 17.09269 -61.86779 1368 ft 114 kts 74°
2026-04-15 22:38 17.09723 -61.86091 1159 ft 123 kts 58°
2026-04-15 22:38 17.10167 -61.85310 1127 ft 121 kts 72°
2026-04-15 22:38 17.10460 -61.84506 970 ft 129 kts 58°
2026-04-15 22:38 17.11014 -61.83804 777 ft 117 kts 66°
2026-04-15 22:39 17.11418 -61.83082 629 ft 123 kts 62°
2026-04-15 22:39 17.11875 -61.82336 551 ft 120 kts 63°
2026-04-15 22:39 17.12315 -61.81567 369 ft 130 kts 65°
2026-04-15 22:39 17.12802 -61.80761 232 ft 130 kts 64°
2026-04-15 22:40 17.13248 -61.79996 92 ft 115 kts 62°
2026-04-15 22:40 17.13593 -61.79403 67 ft 70 kts 59°
2026-04-15 22:40 17.13813 -61.79037 62 ft 55 kts 57°
2026-04-15 22:41 17.14014 -61.78683 63 ft 12 kts 57°
2026-04-15 22:41 17.14074 -61.78629 64 ft 12 kts
2026-04-15 22:41 17.14098 -61.78675 64 ft 7 kts 273°
2026-04-15 22:41 17.14102 -61.78726 64 ft 7 kts 275°
2026-04-15 22:42 17.14107 -61.78777 65 ft 7 kts 275°
2026-04-15 22:42 17.14110 -61.78824 63 ft 8 kts 275°
2026-04-15 22:42 17.14094 -61.78880 60 ft 8 kts 236°
2026-04-15 22:42 17.14073 -61.78924 62 ft 6 kts 269°
2026-04-15 22:43 17.14100 -61.78953 60 ft 6 kts 327°
2026-04-15 22:43 17.14115 -61.78963 60 ft 0 kts 328°
2026-04-15 22:43 17.14124 -61.78969 61 ft 2 kts 328°
2026-04-15 22:43 17.14131 -61.78974 60 ft 0 kts 328°